Livingston, MT

8:32 PM MST on January 16, 2018 (GMT -0700)
Mission

Weather History for KLVM - February, 2013

Change the Weather History Date:

Thursday, February 14, 2013

  Actual Average Record
Temperature  
Mean Temperature 27 °F 29 °F  
Max Temperature 33 °F 39 °F 64 °F (2015)
Min Temperature 21 °F 18 °F -11 °F (1990)
Degree Days  
Heating Degree Days 38 36  
Month to date heating degree days 517  
Since 1 July heating degree days 4858  
Cooling Degree Days 0 0  
Month to date cooling degree days 0  
Year to date cooling degree days 0  
Moisture  
Dew Point 19 °F    
Average Humidity 78    
Maximum Humidity 93    
Minimum Humidity 61    
Precipitation  
Precipitation 0.08 in 0.02 in 0.33 in (2006)
Month to date precipitation 0.23  
Year to date precipitation 0.72  
Sea Level Pressure  
Sea Level Pressure 30.28 in    
Wind  
Wind Speed 9 mph (NNW)    
Max Wind Speed 20 mph    
Max Gust Speed 28 mph    
Visibility 6 miles    
Events Fog , Snow    
T = Trace of Precipitation, MM = Missing Value Source: NWS Daily Summary

Daily Weather History Graph

Daily Weather History Graph

Search for Another Location

Airport or City:

Trip Planner

Search our weather history database for the weather conditions in past years. The results will help you decide how hot, cold, wet, or windy it might be!

Date:

Astronomy

Feb. 14, 2013 Rise Set
Actual Time 7:24 AM MST 5:47 PM MST
Civil Twilight 6:54 AM MST 6:18 PM MST
Nautical Twilight 6:19 AM MST 6:53 PM MST
Astronomical Twilight 5:45 AM MST 7:27 PM MST
Moon 9:11 AM MST (2/14) 11:13 PM MST (2/14)
Length of Visible Light 11h 23m
Length of Day
10h 22m
Waxing Crescent, 22% of the Moon is Illuminated
Feb 14
Waxing Crescent
Feb 17
First Quarter
Feb 25
Full
Mar 4
Last Quarter
Mar 11
New

Hourly Weather History & Observations

Time (MST) Temp. Windchill Dew Point Humidity Pressure Visibility Wind Dir Wind Speed Gust Speed Precip Events Conditions
12:53 AM 33.1 °F 23.9 °F 24.1 °F 70% 30.15 in 7.0 mi NNW 12.7 mph - 0.00 in Snow Light Snow
1:53 AM 32.0 °F 23.6 °F 24.1 °F 73% 30.17 in 8.0 mi NE 10.4 mph - 0.00 in Snow Light Snow
2:08 AM 24.8 °F 12.4 °F 19.4 °F 80% 30.13 in 5.0 mi East 15.0 mph - 0.00 in Snow Light Snow
2:12 AM 24.8 °F 14.6 °F 17.6 °F 74% 30.14 in 1.8 mi East 10.4 mph - 0.00 in Snow Light Snow
2:16 AM 24.8 °F 14.6 °F 19.4 °F 80% 30.15 in 0.8 mi East 10.4 mph - 0.00 in Snow Light Snow
2:19 AM 24.8 °F 15.3 °F 19.4 °F 80% 30.15 in 0.5 mi East 9.2 mph - 0.00 in Fog , Snow Snow
2:28 AM 23.0 °F 12.4 °F 19.4 °F 86% 30.15 in 0.5 mi East 10.4 mph - 0.01 in Fog , Snow Snow
2:43 AM 23.0 °F 11.7 °F 19.4 °F 86% 30.16 in 1.0 mi ENE 11.5 mph - 0.02 in Snow Light Snow
2:46 AM 23.0 °F 13.1 °F 19.4 °F 86% 30.17 in 1.2 mi ENE 9.2 mph - 0.02 in Snow Light Snow
2:53 AM 23.0 °F 13.1 °F 19.0 °F 85% 30.25 in 2.0 mi NE 9.2 mph - 0.02 in Snow Light Snow
3:20 AM 23.0 °F 18.4 °F 19.4 °F 86% 30.20 in 1.5 mi ENE 3.5 mph - 0.01 in Snow Light Snow
3:29 AM 23.0 °F 18.4 °F 19.4 °F 86% 30.21 in 1.0 mi NE 3.5 mph - 0.01 in Snow Light Snow
3:40 AM 23.0 °F 15.8 °F 19.4 °F 86% 30.22 in 0.8 mi ENE 5.8 mph - 0.02 in Snow Light Snow
3:53 AM 23.0 °F 15.8 °F 19.0 °F 85% 30.30 in 0.5 mi NNE 5.8 mph - 0.03 in Fog , Snow Snow
4:10 AM 21.2 °F 13.6 °F 19.4 °F 93% 30.22 in 1.0 mi NNW 5.8 mph - 0.01 in Snow Light Snow
4:27 AM 23.0 °F 18.4 °F 19.4 °F 86% 30.22 in 1.2 mi NE 3.5 mph - 0.02 in Snow Light Snow
4:53 AM 21.9 °F - 19.0 °F 89% 30.32 in 1.5 mi Calm Calm - 0.03 in Snow Light Snow
4:59 AM 21.2 °F - 19.4 °F 93% 30.22 in 3.0 mi Calm Calm - 0.00 in Snow Light Snow
5:14 AM 21.2 °F - 17.6 °F 86% 30.23 in 10.0 mi Calm Calm - 0.00 in   Overcast
5:53 AM 21.9 °F - 17.1 °F 82% 30.34 in 9.0 mi Calm Calm - 0.00 in   Overcast
6:53 AM 21.9 °F 13.4 °F 18.0 °F 85% 30.37 in 9.0 mi WNW 6.9 mph - 0.00 in Snow Light Snow
7:53 AM 21.9 °F 12.5 °F 15.1 °F 75% 30.40 in 7.0 mi West 8.1 mph - 0.00 in Snow Light Snow
8:42 AM 21.2 °F 12.6 °F 17.6 °F 86% 30.29 in 1.8 mi WSW 6.9 mph - 0.00 in Snow Light Snow
8:49 AM 21.2 °F 14.9 °F 17.6 °F 86% 30.29 in 3.0 mi West 4.6 mph - 0.00 in Snow Light Snow
8:50 AM 21.9 °F 15.7 °F 17.1 °F 82% 30.41 in 4.0 mi West 4.6 mph - 0.00 in Snow Light Snow
9:53 AM 23.0 °F 18.4 °F 18.0 °F 81% 30.40 in 10.0 mi SSW 3.5 mph - 0.00 in   Overcast
10:53 AM 24.1 °F - 18.0 °F 77% 30.39 in 10.0 mi Calm Calm - N/A   Overcast
11:53 AM 26.1 °F 20.5 °F 18.0 °F 71% 30.39 in 10.0 mi NNW 4.6 mph - N/A   Overcast
12:53 PM 27.0 °F 20.5 °F 19.0 °F 72% 30.36 in 10.0 mi WNW 5.8 mph - 0.00 in   Overcast
1:53 PM 28.0 °F 21.7 °F 21.0 °F 75% 30.34 in 10.0 mi NW 5.8 mph - N/A   Overcast
2:53 PM 30.9 °F 26.2 °F 21.9 °F 69% 30.35 in 10.0 mi NW 4.6 mph - N/A   Overcast
3:53 PM 32.0 °F 26.4 °F 21.9 °F 66% 30.35 in 10.0 mi North 5.8 mph - N/A   Overcast
4:53 PM 32.0 °F 26.4 °F 21.0 °F 64% 30.35 in 10.0 mi NW 5.8 mph - N/A   Overcast
5:53 PM 30.9 °F 24.3 °F 21.0 °F 67% 30.35 in 10.0 mi WNW 6.9 mph - N/A   Overcast
6:53 PM 30.9 °F 21.7 °F 21.0 °F 67% 30.35 in 10.0 mi NW 11.5 mph - N/A   Overcast
7:53 PM 32.0 °F 22.1 °F 19.9 °F 61% 30.35 in 10.0 mi West 13.8 mph 19.6 mph N/A   Overcast
8:53 PM 32.0 °F 23.0 °F 19.9 °F 61% 30.35 in 10.0 mi West 11.5 mph - N/A   Overcast
9:53 PM 32.0 °F 20.1 °F 21.0 °F 64% 30.35 in 10.0 mi SW 19.6 mph - N/A   Overcast
10:53 PM 32.0 °F 20.8 °F 21.0 °F 64% 30.37 in 10.0 mi WSW 17.3 mph - N/A   Overcast
11:53 PM 32.0 °F 20.5 °F 19.9 °F 61% 30.37 in 10.0 mi WSW 18.4 mph 27.6 mph N/A   Overcast